Hourly Data Report for February 01, 1968

All times are specified in Local Standard Time (LST). Add 1 hour to adjust for Daylight Saving Time where and when it is observed.

FREDERICTON A
NEW BRUNSWICK

45°52'19.670" N
66°31'40.410" W
20.70 m
8101500

Download Data

Hourly Data (February 1968)
Hourly Data Report for February 1, 1968
Temp Definition
°C
Dew Point Temp Definition
°C
Rel Hum Definition
%
Wind Dir Definition
10's deg

Wind Spd Definition
km/h
Visibility Definition
km
Stn Press Definition
kPa
Hmdx Definition


Wind Chill Definition


Weather Definition


TIME
00:00 -11.1 -12.2 91 9 5 32.2 103.44   -14 Clear
01:00 -12.8 -14.4 88   0 32.2 103.45     Clear
02:00 -15.0 -16.7 86 36 5 32.2 103.43   -19 Clear
03:00 -16.1 -18.3 83   0 32.2 103.44     Clear
04:00 -14.4 -16.1 87   0 32.2 103.47     Clear
05:00 -14.4 -16.7 85   0 32.2 103.46     Mostly Cloudy
06:00 -13.3 -15.0 88 36 5 9.7 103.44   -17 Ice Crystals,Fog
07:00 -12.2 -13.9 89   0 4.8 103.42     Ice Crystals,Fog
08:00 -12.8 -13.9 90 11 8 3.2 103.37   -18 Fog
09:00 -11.7 -12.8 91   0 2.4 103.37     Snow Grains,Fog
10:00 -10.6 -11.7 90   0 3.2 103.35     Snow Grains,Fog
11:00 -9.4 -10.6 91   0 3.2 103.30     Snow Grains,Fog
12:00 -7.8 -8.9 93   0 3.2 103.25     Snow Grains,Fog
13:00 -6.7 -7.8 94 9 6 12.9 103.16   -10 Mostly Cloudy
14:00 -3.9 -6.7 83   0 24.1 103.04     Mainly Clear
15:00 -3.3 -6.1 81   0 32.2 102.97     Mostly Cloudy
16:00 -2.8 -6.1 78 7 6 32.2 102.91   -5 Mainly Clear
17:00 -4.4 -7.2 82 9 10 32.2 102.87   -9 Mainly Clear
18:00 -7.2 -10.6 79 9 3 32.2 102.85   -9 Mainly Clear
19:00 -9.4 -12.2 81   0 32.2 102.77     Mainly Clear
20:00 -10.0 -13.3 77   0 32.2 102.77     Mainly Clear
21:00 -10.0 -12.2 83   0 16.1 102.77     Mostly Cloudy
22:00 -6.7 -8.9 86 25 3 16.1 102.73   -8 Cloudy
23:00 -8.3 -10.6 85   0 16.1 102.64     Cloudy

Notes on Data Quality.

Legend

  • E = Estimated
  • M = Missing
  • NA = Not Available
  • ‡ = Partner data that is not subject to review by the National Climate Archives
Date modified: